View from above orbital plane
|
View from above satellite
|
Ground track
|
The orbit data is extracted from the following two-line orbital elements,
1 13067U 82013A 21104.52457098 .00000776 00000-0 33530-4 0 9997
2 13067 81.1837 302.7780 0003979 132.1581 227.9989 15.21288931139822
Epoch (UTC): | 14 April 2021 12:35:22 |
Eccentricity: | 0.0003979 |
inclination: | 81.1837° |
perigee height: | 499 km |
apogee height: | 504 km |
right ascension of ascending node: | 302.7780° |
argument of perigee: | 132.1581° |
revolutions per day: | 15.21288931 |
mean anomaly at epoch: | 227.9989° |
orbit number at epoch: | 13982 |
The dashed part of the orbit path shows where the satellite is in the earth's shadow,
|
|